Location: Bílinka
(49.3579°N, 14.3767°E)
Time: 01:39:10
(UTC+00:00)

Cosmos 540 Rocket - Pass Details

Date: 28 January 2023
Orbit: 740 x 751 km, 74.1° (Epoch: 31 March)

Event Time Altitude Azimuth Distance (km) Brightness Sun altitude
Rises 17:49:04 0° 340° (NNW) 3,211 6.9 -19.1°
Reaches altitude 10° 17:51:37 10° 349° (N) 2,282 6.0 -19.5°
Enters shadow 17:56:21 38° 55° (NE) 1,136 3.9 -20.2°
